Bookmark and Share
Track history (hours):
 

Drifting buoy 43528

Last reported at 2014-Apr-24 00:00 UTC. Time now 2014-Apr-24 01:54 UTC.
Position N 20°11' W 113°11'.

Water temperature 24.4 ° C

NotesDate/timePositionNaut miles runAvg speedWind from/ knotsBaromVisibWave heightAir tempDewpointWater temp
2014-Apr-24 00:00N 20°11' W 113°11'1 0.6 24.4
2014-Apr-23 23:00N 20°11' W 113°11'1 0.3 24.4
2014-Apr-23 21:00N 20°11' W 113°10'2 0.5 24.4
2014-Apr-23 17:00N 20°12' W 113°08'1 1.5 24.3
2014-Apr-23 16:00N 20°13' W 113°07'1 0.6 24.2
2014-Apr-23 15:00N 20°13' W 113°06'0 0.0 24.2
2014-Apr-23 14:00N 20°13' W 113°06'1 0.8 24.2
2014-Apr-23 13:00N 20°13' W 113°06'1 0.5 24.3
2014-Apr-23 12:00N 20°14' W 113°05'0 0.3 24.3
2014-Apr-23 11:00N 20°14' W 113°05'0 0.5 24.3
2014-Apr-23 10:00N 20°14' W 113°05'3 1.5 24.3
2014-Apr-23 08:00N 20°15' W 113°02'0 0.0 24.4
2014-Apr-23 07:00N 20°15' W 113°02'0 0.2 24.4
2014-Apr-23 05:00N 20°15' W 113°01'1 0.8 24.4
2014-Apr-23 04:00N 20°16' W 113°01'1 0.6 24.4
2014-Apr-23 03:00N 20°16' W 113°01'1 0.4 24.4
2014-Apr-23 00:00N 20°17' W 112°60'2 0.4 24.4
2014-Apr-22 20:00N 20°17' W 112°58'1 0.5 24.4
2014-Apr-22 18:00N 20°18' W 112°57'1 0.5 24.3
2014-Apr-22 17:00N 20°18' W 112°57'1 1.3 24.3
2014-Apr-22 16:00N 20°18' W 112°55'1 1.3 24.3
2014-Apr-22 15:00N 20°18' W 112°57'1 0.6 24.3
2014-Apr-22 13:00N 20°18' W 112°55'1 0.4 24.3
2014-Apr-22 11:00N 20°18' W 112°54'0 0.5 24.3
2014-Apr-22 10:00N 20°18' W 112°54'1 0.6 24.3
2014-Apr-22 08:00N 20°18' W 112°53'1 0.2 24.4
2014-Apr-22 05:00N 20°18' W 112°52'1 0.6 24.4
2014-Apr-22 04:00N 20°17' W 112°52'1 0.7 24.4
2014-Apr-22 03:00N 20°17' W 112°51'3 0.6 24.4
2014-Apr-21 23:00N 20°18' W 112°49'1 0.3 24.5
2014-Apr-21 21:00N 20°18' W 112°49'0 0.0 24.4
2014-Apr-21 20:00N 20°18' W 112°49'2 0.6 24.4
2014-Apr-21 16:00N 20°19' W 112°47'1 1.0 24.2
2014-Apr-21 15:00N 20°19' W 112°48'1 0.6 24.2
2014-Apr-21 13:00N 20°19' W 112°47'0 0.0 24.2
2014-Apr-21 12:00N 20°19' W 112°47'1 0.4 24.2
2014-Apr-21 10:00N 20°20' W 112°48'1 1.4 24.2
2014-Apr-21 09:00N 20°18' W 112°48'0 0.0 24.3
2014-Apr-21 06:00N 20°18' W 112°48'0 0.2 24.3
2014-Apr-21 05:00N 20°18' W 112°48'1 0.6 24.3
2014-Apr-21 04:00N 20°18' W 112°48'1 1.1 24.3
2014-Apr-21 03:00N 20°17' W 112°47'0 0.0 24.3
2014-Apr-21 02:00N 20°17' W 112°47'1 0.7 24.4
2014-Apr-21 01:00N 20°17' W 112°46'1 0.2 24.4
2014-Apr-20 22:00N 20°17' W 112°45'1 0.8 24.4
2014-Apr-20 21:00N 20°16' W 112°45'0 0.0 24.4
2014-Apr-20 20:00N 20°16' W 112°45'1 0.7 24.4
2014-Apr-20 18:00N 20°17' W 112°44'0 0.0 24.3
2014-Apr-20 17:00N 20°17' W 112°44'0 0.2 24.2
2014-Apr-20 16:00N 20°17' W 112°44'1 0.5 24.2
2014-Apr-20 14:00N 20°17' W 112°43'1 0.4 24.2
2014-Apr-20 12:00N 20°17' W 112°42'1 0.2 24.2
2014-Apr-20 09:00N 20°18' W 112°42'0 0.0 24.3
2014-Apr-20 04:00N 20°18' W 112°43'0 0.4 24.5
2014-Apr-20 03:00N 20°18' W 112°42'1 1.0 24.4
2014-Apr-20 02:00N 20°17' W 112°42'0 0.0 24.4
2014-Apr-20 01:00N 20°17' W 112°42'0 0.1 24.4
2014-Apr-19 22:00N 20°18' W 112°42'0 0.0 24.5
2014-Apr-19 18:00N 20°18' W 112°42'0 0.3 24.2
2014-Apr-19 17:00N 20°17' W 112°42'1 0.6 24.2
2014-Apr-19 15:00N 20°16' W 112°41'1 1.1 24.1
2014-Apr-19 14:00N 20°16' W 112°40'1 0.3 24.2
2014-Apr-19 12:00N 20°17' W 112°40'2 0.7 24.2
2014-Apr-19 09:00N 20°18' W 112°38'0 0.1 24.3
2014-Apr-19 05:00N 20°18' W 112°38'0 0.2 24.4
2014-Apr-19 03:00N 20°18' W 112°38'1 0.2 24.3
2014-Apr-18 22:00N 20°19' W 112°38'1 0.2 24.9
2014-Apr-18 18:00N 20°20' W 112°38'0 0.4 24.5
2014-Apr-18 17:00N 20°20' W 112°38'1 0.7 24.3
2014-Apr-18 16:00N 20°20' W 112°37'0 0.0 24.2
2014-Apr-18 15:00N 20°20' W 112°37'1 0.3 24.1
2014-Apr-18 13:00N 20°19' W 112°37'0 0.2 24.1
2014-Apr-18 12:00N 20°19' W 112°37'1 0.3 24.1
2014-Apr-18 09:00N 20°20' W 112°36'1 0.3 23.9
2014-Apr-18 06:00N 20°20' W 112°37'0 0.3 24.0
2014-Apr-18 05:00N 20°20' W 112°37'1 0.5 24.1
2014-Apr-18 03:00N 20°20' W 112°37'1 0.7 24.3
2014-Apr-18 02:00N 20°19' W 112°36'0 0.1 24.5
2014-Apr-18 00:00N 20°19' W 112°36'1 0.3 25.8
2014-Apr-17 22:00N 20°19' W 112°35'2 1.6 26.4
2014-Apr-17 21:00N 20°20' W 112°34'0 0.0 25.4
2014-Apr-17 20:00N 20°20' W 112°34'0 0.0 24.9
2014-Apr-17 18:00N 20°20' W 112°34'1 0.7 24.4
2014-Apr-17 17:00N 20°21' W 112°34'2 0.4 24.0
2014-Apr-17 13:00N 20°21' W 112°32'1 0.6 23.9
2014-Apr-17 12:00N 20°21' W 112°31'1 1.0 23.9
2014-Apr-17 11:00N 20°22' W 112°31'2 1.0 23.9
2014-Apr-17 09:00N 20°24' W 112°32'0 0.0 23.9
2014-Apr-17 05:00N 20°24' W 112°32'0 0.3 23.9
2014-Apr-17 04:00N 20°24' W 112°32'1 0.7 24.0
2014-Apr-17 03:00N 20°25' W 112°32'0 0.0 24.0
2014-Apr-17 02:00N 20°25' W 112°32'1 0.7 24.1
2014-Apr-17 00:00N 20°23' W 112°32'0 0.2 24.3
2014-Apr-16 22:00N 20°23' W 112°31'1 0.7 24.5
2014-Apr-16 21:00N 20°24' W 112°30'1 0.1 24.6
2014-Apr-16 17:00N 20°24' W 112°30'1 1.0 23.9
2014-Apr-16 16:00N 20°23' W 112°30'2 0.5 23.8
2014-Apr-16 12:00N 20°24' W 112°28'1 0.6 23.8
2014-Apr-16 11:00N 20°24' W 112°27'0 0.0 23.8
2014-Apr-16 10:00N 20°24' W 112°27'0 0.5 23.8
2014-Apr-16 09:00N 20°24' W 112°27'0 0.0 23.8
2014-Apr-16 08:00N 20°24' W 112°27'3 0.8 23.8
2014-Apr-16 04:00N 20°26' W 112°24'0 0.0 23.9
2014-Apr-16 03:00N 20°26' W 112°24'1 1.0 23.9
2014-Apr-16 02:00N 20°27' W 112°23'1 0.3 23.9
2014-Apr-16 00:00N 20°27' W 112°23'1 0.7 24.0
2014-Apr-15 23:00N 20°28' W 112°22'1 0.3 24.0
2014-Apr-15 21:00N 20°28' W 112°22'1 0.4 23.9
2014-Apr-15 19:00N 20°29' W 112°23'0 0.1 23.8
2014-Apr-15 18:00N 20°29' W 112°23'1 0.3 23.7
2014-Apr-15 16:00N 20°29' W 112°24'1 0.6 23.7
2014-Apr-15 15:00N 20°28' W 112°23'1 0.3 23.6
2014-Apr-15 13:00N 20°28' W 112°23'1 0.4 23.6
2014-Apr-15 11:00N 20°28' W 112°22'1 0.6 23.6
2014-Apr-15 10:00N 20°28' W 112°22'2 0.9 23.7
2014-Apr-15 08:00N 20°27' W 112°20'0 0.0 23.7
2014-Apr-15 07:00N 20°27' W 112°20'1 0.3 23.7
2014-Apr-15 05:00N 20°27' W 112°19'0 0.4 23.7
2014-Apr-15 04:00N 20°27' W 112°19'2 2.0 23.8
2014-Apr-15 03:00N 20°28' W 112°17'0 0.0 23.8
2014-Apr-15 02:00N 20°28' W 112°17'1 0.6 23.8
2014-Apr-15 00:00N 20°29' W 112°16'1 1.2 23.9
2014-Apr-14 23:00N 20°30' W 112°15'1 0.3 23.9
2014-Apr-14 21:00N 20°30' W 112°14'1 0.8 23.9
2014-Apr-14 20:00N 20°31' W 112°14'1 0.7 23.8
2014-Apr-14 18:00N 20°31' W 112°13'2 0.8 23.8
2014-Apr-14 16:00N 20°32' W 112°11'0 0.0 23.7
2014-Apr-14 13:00N 20°32' W 112°11'1 0.5 23.8
2014-Apr-14 11:00N 20°33' W 112°11'0 0.2 23.8
2014-Apr-14 10:00N 20°33' W 112°10'0 0.2 23.8
2014-Apr-14 08:00N 20°33' W 112°10'1 0.7 23.8
2014-Apr-14 06:00N 20°34' W 112°09'0 0.2 23.9
2014-Apr-14 05:00N 20°34' W 112°09'0 0.3 23.9
2014-Apr-14 04:00N 20°34' W 112°09'1 1.0 23.9
2014-Apr-14 03:00N 20°34' W 112°08'1 0.8 23.9
2014-Apr-14 02:00N 20°35' W 112°07'1 0.3 24.0
2014-Apr-14 00:00N 20°34' W 112°07'   24.0

Dump ship's entire track history

sailing weather and tide predictions

Buoy 43528